Deer Park, WA

6:48 AM PST on February 24, 2017 (GMT -0800)
Deer Park

Weather History for KDEW - December, 2011

Change the Weather History Date:

Wednesday, December 14, 2011

  Actual Average Record
Temperature  
Mean Temperature 29 °F 25 °F  
Max Temperature 31 °F 32 °F 51 °F (2002)
Min Temperature 26 °F 19 °F 3 °F (2008)
Degree Days  
Heating Degree Days 36 40  
Month to date heating degree days 546 539  
Since 1 July heating degree days 2462 2542  
Cooling Degree Days 0 0  
Month to date cooling degree days 0 0  
Year to date cooling degree days 96 187  
Moisture  
Dew Point 25 °F    
Average Humidity 85    
Maximum Humidity 92    
Minimum Humidity 78    
Precipitation  
Precipitation T in 0.09 in 0.93 in (2002)
Month to date precipitation T 1.24  
Year to date precipitation 18.10 20.63  
Sea Level Pressure  
Sea Level Pressure 30.19 in    
Wind  
Wind Speed 2 mph (NNE)    
Max Wind Speed 9 mph    
Max Gust Speed 13 mph    
Visibility 8 miles    
Events Snow    
T = Trace of Precipitation, MM = Missing Value Source: NWS Daily Summary

Daily Weather History Graph

Daily Weather History Graph

Search for Another Location

Airport or City:

Trip Planner

Search our weather history database for the weather conditions in past years. The results will help you decide how hot, cold, wet, or windy it might be!

Date:

Astronomy

Dec. 14, 2011 Rise Set
Actual Time 7:31 AM PST 3:56 PM PST
Civil Twilight 6:55 AM PST 4:33 PM PST
Nautical Twilight 6:15 AM PST 5:12 PM PST
Astronomical Twilight 5:38 AM PST 5:50 PM PST
Moon 8:37 PM PST (12/14) 10:06 AM PST (12/14)
Length of Visible Light 9h 37m
Length of Day
8h 24m
Waning Gibbous, 82% of the Moon is Illuminated
Dec 14
Waning Gibbous
Dec 17
Last Quarter
Dec 24
New
Dec 31
First Quarter
Jan 8
Full

Hourly Weather History & Observations

Time (PST) Temp. Windchill Dew Point Humidity Pressure Visibility Wind Dir Wind Speed Gust Speed Precip Events Conditions
12:53 AM 26.1 °F - 24.1 °F 92% 30.18 in 6.0 mi Calm Calm - N/A   Overcast
1:14 AM 26.6 °F - 24.8 °F 93% 30.09 in 5.0 mi Calm Calm - N/A   Overcast
1:45 AM 26.6 °F - 24.8 °F 93% 30.10 in 6.0 mi Calm Calm - N/A   Overcast
1:53 AM 27.0 °F - 24.1 °F 89% 30.18 in 6.0 mi Calm Calm - N/A   Overcast
2:53 AM 27.0 °F - 24.1 °F 89% 30.19 in 5.0 mi Calm Calm - N/A   Overcast
3:53 AM 27.0 °F - 24.1 °F 89% 30.19 in 5.0 mi Calm Calm - N/A   Overcast
4:53 AM 26.1 °F - 24.1 °F 92% 30.21 in 5.0 mi Calm Calm - N/A   Overcast
5:05 AM 26.6 °F 22.6 °F 24.8 °F 93% 30.14 in 5.0 mi South 3.5 mph - N/A   Overcast
5:23 AM 26.6 °F - 24.8 °F 93% 30.14 in 5.0 mi Calm Calm - N/A   Overcast
5:53 AM 26.1 °F 21.9 °F 24.1 °F 92% 30.22 in 6.0 mi SSE 3.5 mph - N/A   Overcast
6:53 AM 26.1 °F 21.9 °F 23.0 °F 88% 30.24 in 10.0 mi SSE 3.5 mph - N/A   Overcast
7:53 AM 26.1 °F - 23.0 °F 88% 30.26 in 10.0 mi Calm Calm - N/A   Overcast
8:53 AM 26.1 °F - 23.0 °F 88% 30.27 in 10.0 mi Calm Calm - N/A   Overcast
9:09 AM 26.6 °F - 23.0 °F 86% 30.19 in 10.0 mi Calm Calm - N/A   Overcast
9:17 AM 26.6 °F - 23.0 °F 86% 30.19 in 10.0 mi Calm Calm - N/A   Overcast
9:39 AM 26.6 °F - 23.0 °F 86% 30.19 in 10.0 mi Calm Calm - N/A   Overcast
9:53 AM 26.1 °F - 24.1 °F 92% 30.27 in 8.0 mi Calm Calm - N/A   Overcast
10:01 AM 26.6 °F - 24.8 °F 93% 30.20 in 8.0 mi Calm Calm - N/A   Overcast
10:53 AM 28.0 °F - 24.1 °F 85% 30.27 in 8.0 mi Calm Calm - N/A   Overcast
11:53 AM 28.9 °F - 25.0 °F 85% 30.27 in 8.0 mi Calm Calm - N/A   Overcast
12:35 PM 28.4 °F - 24.8 °F 86% 30.19 in 9.0 mi Calm Calm - N/A   Overcast
12:53 PM 28.9 °F - 25.0 °F 85% 30.26 in 9.0 mi Calm Calm - N/A   Overcast
1:53 PM 30.0 °F 26.5 °F 26.1 °F 85% 30.22 in 9.0 mi NNE 3.5 mph - N/A   Overcast
2:01 PM 30.2 °F 25.4 °F 26.6 °F 86% 30.15 in 8.0 mi NE 4.6 mph - N/A   Overcast
2:09 PM 30.2 °F 26.7 °F 26.6 °F 86% 30.16 in 8.0 mi NNE 3.5 mph - N/A   Overcast
2:53 PM 30.0 °F - 26.1 °F 85% 30.23 in 9.0 mi Calm Calm - N/A   Overcast
3:53 PM 30.0 °F 26.5 °F 25.0 °F 82% 30.22 in 10.0 mi North 3.5 mph - N/A   Overcast
4:53 PM 28.9 °F 25.2 °F 25.0 °F 85% 30.22 in 10.0 mi North 3.5 mph - N/A   Overcast
5:53 PM 28.9 °F 22.8 °F 24.1 °F 82% 30.20 in 10.0 mi NNE 5.8 mph - N/A   Overcast
6:53 PM 28.9 °F 25.2 °F 25.0 °F 85% 30.19 in 10.0 mi North 3.5 mph - N/A   Overcast
7:53 PM 30.0 °F 24.1 °F 25.0 °F 82% 30.19 in 10.0 mi NNE 5.8 mph - N/A   Overcast
8:53 PM 30.0 °F 23.2 °F 25.0 °F 82% 30.19 in 8.0 mi NNW 6.9 mph - 0.00 in Snow Light Snow
9:49 PM 30.2 °F 26.7 °F 24.8 °F 80% 30.10 in 5.0 mi North 3.5 mph - 0.00 in Snow Light Snow
9:53 PM 30.0 °F 26.5 °F 26.1 °F 85% 30.18 in 7.0 mi North 3.5 mph - 0.00 in Snow Light Snow
10:53 PM 30.0 °F 24.1 °F 26.1 °F 85% 30.16 in 10.0 mi NNE 5.8 mph - N/A   Overcast
11:53 PM 30.0 °F 25.2 °F 26.1 °F 85% 30.16 in 10.0 mi North 4.6 mph - N/A   Overcast